Location: Alpha Ridge Park
(39.3209°N, 76.9128°W)
Time: 15:44:25
(UTC-04:00)

BEESAT - Pass Details

Date: 06 July 2022
Orbit: 700 x 706 km, 98.6° (Epoch: 16 August)

Event Time Altitude Azimuth Distance (km) Brightness Sun altitude
Rises 21:32:16 0° 13° (NNE) 3,104 ? -9.5°
Reaches altitude 10° 21:34:31 10° 14° (NNE) 2,182 ? -9.9°
Maximum altitude 21:39:19 88° 102° (ESE) 712 ? -10.6°
Drops below altitude 10° 21:44:05 10° 194° (SSW) 2,169 ? -11.2°
Sets 21:46:20 0° 194° (SSW) 3,084 ? -11.6°
